This demonstration page uses our WeatherBlox Daily Observations layout. Learn more.

Left ArrowRight Arrow

38.83388, -104.82136

Hourly Observations for January 28, 2017

Temp ( °F °C ) Dew Point ( °F °C ) Humidity (%) Winds ( mph kmh ) Pressure ( in mb ) Visibility ( mi km ) Precip ( " mm )
12:58 am 00:58 Clear 22 -5.6 5 -15.2 47 47 WNW 7 11 30.12 1020 10 16 0.00 0.00
1:58 am 01:58 Clear 24 -4.6 2 -16.4 40 40 SSW 3 6 30.06 1018 10 16 0.00 0.00
2:58 am 02:58 Clear 26 -3.4 0 -17.9 32 32 NW 7 11 30.05 1018 10 16 0.00 0.00
3:58 am 03:58 Clear 28 -2.3 -1 -18.4 28 28 N 14 22 30.03 1017 10 16 0.00 0.00
4:58 am 04:58 Clear 28 -2.3 -1 -18.6 28 28 N 13 20 30.04 1017 10 16 0.00 0.00
5:58 am 05:58 Clear 29 -1.7 -3 -19.3 25 25 N 7 11 30.04 1017 10 16 0.00 0.00
6:58 am 06:58 Clear 28 -2.5 -3 -19.3 26 26 S 3 6 30.05 1018 10 16 0.00 0.00
7:58 am 07:58 Sunny 32 0.2 -4 -20.1 20 20 N 10 17 30.06 1018 10 16 0.00 0.00
8:58 am 08:58 Sunny 35 1.8 -1 -18.5 21 21 N 7 11 30.04 1017 10 16 0.00 0.00
9:58 am 09:58 Sunny 38 3.3 4 -15.8 23 23 NE 6 9 30.03 1017 10 16 0.00 0.00
10:58 am 10:58 Mostly Sunny 41 4.8 4 -15.7 21 21 N 13 20 30.02 1017 10 16 0.00 0.00
11:58 am 11:58 Mostly Sunny 42 5.8 8 -13.5 24 24 NNE 16 26 30.00 1016 10 16 0.00 0.00
12:58 pm 12:58 Partly Cloudy 42 5.8 9 -12.9 25 25 NNE 6 9 30.00 1016 10 16 0.00 0.00
1:58 pm 13:58 Mostly Cloudy 43 6 11 -11.9 27 27 N 10 17 29.97 1015 10 16 0.00 0.00
2:58 pm 14:58 Mostly Cloudy 42 5.6 9 -12.9 25 25 N 6 9 29.98 1015 10 16 0.00 0.00
3:58 pm 15:58 Partly Cloudy 41 5.1 11 -11.6 29 29 NNE 3 6 29.99 1016 10 16 0.00 0.00
4:58 pm 16:58 Mostly Cloudy 40 4.3 13 -10.7 33 33 NW 7 11 30.00 1016 10 16 0.00 0.00
5:58 pm 17:58 Mostly Cloudy 38 3.4 14 -10 37 37 WNW 9 15 30.02 1017 10 16 0.00 0.00
6:58 pm 18:58 Mostly Clear 38 3.1 12 -11 35 35 NW 3 6 30.05 1018 10 16 0.00 0.00
7:58 pm 19:58 Mostly Cloudy 37 2.6 12 -11 36 36 NW 7 11 30.04 1017 10 16 0.00 0.00
8:58 pm 20:58 Partly Cloudy 36 2.1 13 -10.8 38 38 NW 6 9 30.02 1017 10 16 0.00 0.00
9:58 pm 21:58 Clear 37 2.9 11 -11.8 33 33 SSW 6 9 30.01 1016 10 16 0.00 0.00
10:58 pm 22:58 Clear 35 1.9 12 -10.9 38 38 Calm 30.01 1016 10 16 0.00 0.00
11:58 pm 23:58 Clear 33 0.8 12 -11 41 41 W 5 7 30.03 1017 10 16 0.00 0.00

Powered by AerisWeather